Date String (YYYY-MM-DD hh:mm:ss) UTC,Instrument flags,Ambient pressure (hPa),Sample flow (lpm),Bypass flow (lpm),Sample temperature (°C),Ambient temperature (°C),ASC tube jacket temperature (°C),LED temperature (°C),Box temperature (°C),Sample RH (%),Span deviation,Mass concentration (μg/m³),Mass concentration (μg/m³),Mass concentration (μg/m³)
DateTimeUTC,F1_M11,P_M11,Q1_M11,Q2_M11,T1_M11,T2_M11,T3_M11,T4_M11,T5_M11,U1_M11,ZSPAN_M11,X2_M11,X0_M11,X1_M11
2022-03-31 01:00:00,,0817.0,5.00,0.00,23.8,22.9,00.0,32.8,25.5,07.3,0000.0,0002.29,0004.85,0001.21
2022-03-31 01:01:00,,0817.0,5.00,0.00,23.7,22.8,00.0,32.8,25.5,07.5,0000.0,0002.31,0004.91,0001.21
2022-03-31 01:02:00,,0817.0,5.01,0.00,23.8,22.8,00.0,32.8,25.5,07.4,0000.0,0002.37,0005.04,0001.21
2022-03-31 01:03:00,,0816.9,5.00,0.00,23.8,22.8,00.0,32.8,25.5,07.3,0000.0,0002.31,0004.93,0001.21
2022-03-31 01:04:00,,0817.0,4.99,0.00,23.7,22.8,00.0,32.8,25.5,07.5,0000.0,0002.26,0004.78,0001.21
2022-03-31 01:05:00,,0816.9,5.01,0.00,23.7,22.8,00.0,32.8,25.5,07.7,0000.0,0002.33,0004.93,0001.23
2022-03-31 01:06:00,,0817.0,5.01,0.00,23.7,22.8,00.0,32.8,25.5,07.6,0000.0,0002.26,0004.73,0001.23
2022-03-31 01:07:00,,0817.0,5.00,0.00,23.7,22.8,00.0,32.8,25.5,07.6,0000.0,0002.20,0004.51,0001.21
2022-03-31 01:08:00,,0817.0,5.00,0.00,23.7,22.8,00.0,32.8,25.5,07.4,0000.0,0002.16,0004.36,0001.20
2022-03-31 01:09:00,,0817.0,4.99,0.00,23.7,22.8,00.0,32.8,25.5,07.4,0000.0,0002.14,0004.39,0001.19
2022-03-31 01:10:00,,0817.0,5.00,0.00,23.7,22.8,00.0,32.8,25.5,07.4,0000.0,0002.12,0004.85,0001.21
2022-03-31 01:11:00,,0817.0,5.00,0.00,23.7,22.8,00.0,32.8,25.5,07.4,0000.0,0002.06,0004.60,0001.20
2022-03-31 01:12:00,,0817.0,4.99,0.00,23.7,22.8,00.0,32.7,25.5,07.5,0000.0,0002.04,0004.51,0001.20
2022-03-31 01:13:00,,0817.0,5.02,0.00,23.7,22.8,00.0,32.7,25.4,07.4,0000.0,0002.07,0004.61,0001.20
2022-03-31 01:14:00,,0817.0,5.00,0.00,23.7,22.8,00.0,32.7,25.4,07.4,0000.0,0002.08,0004.73,0001.21
2022-03-31 01:15:00,,0817.0,4.99,0.00,23.7,22.7,00.0,32.7,25.4,07.4,0000.0,0002.10,0004.71,0001.21
2022-03-31 01:16:00,,0817.0,5.00,0.00,23.7,22.7,00.0,32.7,25.4,07.3,0000.0,0002.11,0004.65,0001.20
2022-03-31 01:17:00,,0817.0,4.97,0.00,23.6,22.7,00.0,32.7,25.4,07.4,0000.0,0002.14,0004.91,0001.20
2022-03-31 01:18:00,,0817.0,5.00,0.00,23.6,22.7,00.0,32.7,25.4,07.4,0000.0,0002.16,0004.98,0001.22
2022-03-31 01:19:00,,0817.0,4.99,0.00,23.6,22.7,00.0,32.7,25.3,07.5,0000.0,0002.21,0005.11,0001.23
2022-03-31 01:20:00,,0817.0,5.00,0.00,23.6,22.7,00.0,32.7,25.3,07.5,0000.0,0002.24,0005.20,0001.24
2022-03-31 01:21:00,,0817.1,5.01,0.00,23.6,22.7,00.0,32.7,25.3,07.5,0000.0,0002.29,0004.82,0001.24
2022-03-31 01:22:00,,0817.1,5.00,0.00,23.6,22.7,00.0,32.7,25.3,07.5,0000.0,0002.35,0004.82,0001.25
2022-03-31 01:23:00,,0817.1,5.00,0.00,23.6,22.7,00.0,32.7,25.3,07.7,0000.0,0002.47,0005.05,0001.27
2022-03-31 01:24:00,,0817.1,4.99,0.00,23.6,22.7,00.0,32.6,25.3,07.6,0000.0,0002.43,0004.93,0001.27
2022-03-31 01:25:00,,0817.2,5.00,0.00,23.6,22.7,00.0,32.6,25.3,07.6,0000.0,0002.39,0004.80,0001.26
2022-03-31 01:26:00,,0817.2,5.01,0.00,23.6,22.7,00.0,32.6,25.3,07.7,0000.0,0002.42,0004.88,0001.25
2022-03-31 01:27:00,,0817.3,5.00,0.00,23.6,22.7,00.0,32.6,25.3,07.6,0000.0,0002.37,0004.83,0001.26
2022-03-31 01:28:00,,0817.3,4.99,0.00,23.6,22.7,00.0,32.6,25.3,07.6,0000.0,0002.38,0004.74,0001.27
2022-03-31 01:29:00,,0817.4,5.00,0.00,23.6,22.8,00.0,32.6,25.4,07.7,0000.0,0002.42,0004.82,0001.27
2022-03-31 01:30:00,,0817.4,5.00,0.00,23.6,22.8,00.0,32.6,25.4,07.8,0000.0,0002.45,0004.94,0001.28
2022-03-31 01:31:00,,0817.4,5.00,0.00,23.6,22.8,00.0,32.6,25.4,07.7,0000.0,0002.46,0004.94,0001.28
2022-03-31 01:32:00,,0817.4,5.01,0.00,23.6,22.8,00.0,32.6,25.5,07.6,0000.0,0002.44,0004.85,0001.30
2022-03-31 01:33:00,,0817.4,5.00,0.00,23.6,22.8,00.0,32.6,25.5,07.7,0000.0,0002.48,0004.97,0001.30
2022-03-31 01:34:00,,0817.4,4.99,0.00,23.6,22.8,00.0,32.6,25.5,07.6,0000.0,0002.47,0005.32,0001.30
2022-03-31 01:35:00,,0817.5,5.00,0.00,23.6,22.8,00.0,32.6,25.4,07.7,0000.0,0002.52,0005.62,0001.30
2022-03-31 01:36:00,,0817.5,5.00,0.00,23.6,22.8,00.0,32.6,25.5,07.5,0000.0,0002.55,0005.65,0001.32
2022-03-31 01:37:00,,0817.5,5.00,0.00,23.6,22.8,00.0,32.6,25.5,07.5,0000.0,0002.57,0005.69,0001.33
2022-03-31 01:38:00,,0817.6,4.99,0.00,23.6,22.8,00.0,32.6,25.5,07.6,0000.0,0002.57,0005.65,0001.33
2022-03-31 01:39:00,,0817.7,5.00,0.00,23.6,22.8,00.0,32.6,25.5,09.4,0000.0,0002.56,0006.69,0001.33
2022-03-31 01:40:00,,0817.7,5.00,0.00,23.6,22.8,00.0,32.6,25.4,11.7,0000.0,0002.62,0007.29,0001.41
2022-03-31 01:41:00,,0817.7,5.00,0.00,23.6,22.8,00.0,32.6,25.4,12.3,0000.0,0002.71,0007.76,0001.50
2022-03-31 01:42:00,,0817.8,5.00,0.00,23.6,22.8,00.0,32.6,25.3,12.5,0000.0,0002.82,0008.74,0001.59
2022-03-31 01:43:00,,0817.8,5.01,0.00,23.6,22.7,00.0,32.6,25.3,12.8,0000.0,0002.94,0009.61,0001.68
2022-03-31 01:44:00,,0817.7,5.01,0.00,23.5,22.7,00.0,32.6,25.3,12.9,0000.0,0003.06,0009.84,0001.77
2022-03-31 01:45:00,,0817.8,5.00,0.00,23.5,22.6,00.0,32.6,25.2,13.0,0000.0,0003.11,0009.62,0001.89
2022-03-31 01:46:00,,0817.8,5.00,0.00,23.4,22.4,00.0,32.5,25.1,13.1,0000.0,0003.14,0009.54,0001.99
2022-03-31 01:47:00,,0817.8,5.00,0.00,23.4,22.3,00.0,32.5,25.0,13.2,0000.0,0003.20,0010.03,0002.10
2022-03-31 01:48:00,,0817.9,5.01,0.00,23.3,22.2,00.0,32.5,25.0,13.3,0000.0,0003.25,0010.94,0002.20
2022-03-31 01:49:00,,0817.9,5.00,0.00,23.3,22.3,00.0,32.5,25.0,13.3,0000.0,0003.27,0011.46,0002.29
2022-03-31 01:50:00,,0817.9,4.99,0.00,23.3,22.3,00.0,32.5,25.1,13.2,0000.0,0003.31,0011.30,0002.39
2022-03-31 01:51:00,,0818.0,4.99,0.00,23.3,22.4,00.0,32.4,25.1,13.2,0000.0,0003.30,0010.73,0002.44
2022-03-31 01:52:00,,0817.9,5.01,0.00,23.3,22.4,00.0,32.4,25.0,13.3,0000.0,0003.30,0010.38,0002.47
2022-03-31 01:53:00,,0818.0,5.00,0.00,23.3,22.4,00.0,32.4,25.0,13.2,0000.0,0003.29,0009.95,0002.48
2022-03-31 01:54:00,,0818.0,5.00,0.00,23.3,22.4,00.0,32.4,25.0,13.2,0000.0,0003.26,0009.95,0002.47
2022-03-31 01:55:00,,0818.0,5.00,0.00,23.3,22.4,00.0,32.4,25.0,13.2,0000.0,0003.22,0009.62,0002.46
2022-03-31 01:56:00,,0818.0,5.00,0.00,23.3,22.4,00.0,32.4,25.0,13.3,0000.0,0003.23,0009.63,0002.43
2022-03-31 01:57:00,,0818.0,5.00,0.00,23.3,22.4,00.0,32.4,25.0,13.3,0000.0,0003.27,0010.28,0002.42
2022-03-31 01:58:00,,0818.0,5.00,0.00,23.3,22.4,00.0,32.4,25.0,13.3,0000.0,0003.25,0009.90,0002.41
2022-03-31 01:59:00,,0818.0,5.00,0.00,23.3,22.5,00.0,32.3,25.0,13.3,0000.0,0003.22,0009.27,0002.37
